Flag for Germany Weather past 2 weeks in Springe, Lower Saxony, Germany

Now
48 °F

Scattered showers. Broken clouds.


Feels Like: 40 °F
Forecast: 36 / 43 °F
Wind: 29 mph from West

Location: Wunstorf Airport

Current Time: Mar 31, 2015 at 12:37:38 PM

Latest Report: Mar 31, 2015 at 11:20 AM


Visibility: N/A

Pressure: 29.15 "Hg

Humidity: 71%

Dew point: 39 °F

Location of SpringeLocation

Historic Weather in Springe — Graph

°F

Springe temperature yesterday

Maximum temperature yesterday: 48 °F (at 2:20 PM)
Minimum temperature yesterday: 41 °F (at 4:20 AM)
Average temperature yesterday: 43 °F

Past Weeks' High & Low Weather Summary

 TemperatureHumidityPressure
High61 °F (Mar 25, 4:20 PM)100% (Mar 21, 1:20 AM)30.39 "Hg (Mar 21, 1:20 AM)
Low27 °F (Mar 23, 5:20 AM)33% (Mar 19, 5:20 PM)29.06 "Hg (Mar 31, 6:55 AM)
Average43 °F75%29.95 "Hg
* Reported Mar 16 10:20 AM — Mar 31 11:20 AM, Springe, Weather by CustomWeather, © 2015

Note: Actual official high and low records may vary slightly from our data, if they occured in-between our weather recording intervals... More about our weather records

Advertising

Springe weather history for previous 24 hours

 ConditionsComfort  
Time TempWeatherWind HumidityBarometerVisibility
11:20 AM
Tue, Mar 31
48 °FScattered showers. Broken clouds.29 mph71%29.15 "HgN/A
10:20 AM50 °FBroken clouds.32 mph67%29.12 "HgN/A
9:20 AM48 °FBroken clouds.30 mph76%29.09 "HgN/A
8:20 AM48 °FBroken clouds.26 mph76%29.06 "HgN/A
7:20 AM45 °FRain. Passing clouds.18 mph93%29.06 "Hg4 mi
6:55 AM41 °FLight rain. Passing clouds.15 mph93%29.06 "Hg5 mi
6:20 AM39 °FHeavy rain. Passing clouds.18 mph93%29.09 "Hg4 mi
5:20 AM37 °FLight rain. Mostly cloudy.18 mph93%29.18 "Hg6 mi
4:20 AM37 °FRain. Mostly cloudy.15 mph87%29.30 "Hg4 mi
3:20 AM37 °FRain. Overcast.13 mph87%29.45 "Hg5 mi
2:20 AM41 °FLight rain. Mostly cloudy.17 mph70%29.50 "HgN/A
1:20 AM41 °FPassing clouds.9 mph66%29.59 "HgN/A
12:20 AM41 °FPassing clouds.10 mph66%29.65 "HgN/A
11:20 PM
Mon, Mar 30
41 °FPassing clouds.10 mph66%29.68 "HgN/A
10:20 PM41 °FPassing clouds.13 mph66%29.71 "HgN/A
9:20 PM43 °FPassing clouds.17 mph61%29.71 "HgN/A
8:20 PM43 °FScattered clouds.16 mph61%29.71 "HgN/A
7:20 PM45 °FScattered clouds.26 mph53%29.68 "HgN/A
6:20 PM45 °FPassing clouds.18 mph66%29.65 "HgN/A
5:20 PM41 °FScattered showers. Partly sunny.26 mph76%29.65 "HgN/A
4:20 PM45 °FSprinkles. Scattered clouds.29 mph66%29.59 "Hg6 mi
3:20 PM45 °FScattered showers. Partly sunny.22 mph66%29.56 "Hg6 mi
2:20 PM48 °FPartly sunny.30 mph50%29.50 "HgN/A
1:20 PM45 °FScattered showers. Partly sunny.30 mph66%29.47 "HgN/A
12:20 PM46 °FPartly sunny.31 mph57%29.45 "HgN/A
12:01 PM46 °FPartly sunny.35 mph62%29.45 "HgN/A
Weather by CustomWeather, © 2015

See weather overviewHow to use our weather pages